BGA123J LFRZ-EDHI

Flight info

Callsign BGA123J
Flight time 1h 37m
Altitude 30000
Route ANG UL976 OBATO UN873 BAZOS DCT ADUTO/N0477F310 DCT SOGPO DCT APNOC
Aircraft A337/H-SDE3GHIJ2J3J5M1RVWXY/LB2D1

Departure

Time 2026-05-09 07:31
Airport Saint-Nazaire-Montoir Airport (LFRZ)

Arrival

Time 2026-05-09 09:08
Airport Hamburg-Finkenwerder Airport (EDHI)
Time Latitude Longitude Altitude Speed Heading
2026-05-09 07:17 47.31370 -2.16069 23 ft 0 kts 343°
2026-05-09 07:25 47.31375 -2.16068 23 ft 2 kts 360°
2026-05-09 07:25 47.31379 -2.16044 26 ft 5 kts 85°
2026-05-09 07:25 47.31362 -2.15941 27 ft 14 kts 106°
2026-05-09 07:25 47.31313 -2.15831 27 ft 13 kts 123°
2026-05-09 07:26 47.31246 -2.15756 27 ft 12 kts 168°
2026-05-09 07:26 47.31160 -2.15724 25 ft 13 kts 164°
2026-05-09 07:26 47.31071 -2.15715 27 ft 12 kts 210°
2026-05-09 07:26 47.31035 -2.15831 23 ft 14 kts 251°
2026-05-09 07:27 47.31006 -2.15968 24 ft 14 kts 254°
2026-05-09 07:27 47.30999 -2.16002 25 ft 14 kts 254°
2026-05-09 07:27 47.30972 -2.16141 26 ft 15 kts 253°
2026-05-09 07:28 47.30943 -2.16296 23 ft 16 kts 261°
2026-05-09 07:28 47.30943 -2.16327 23 ft 16 kts 272°
2026-05-09 07:28 47.30946 -2.16366 23 ft 15 kts 278°
2026-05-09 07:28 47.30948 -2.16413 25 ft 5 kts 262°
2026-05-09 07:29 47.30935 -2.16425 25 ft 1 kts 198°
2026-05-09 07:29 47.30922 -2.16412 28 ft 5 kts 131°
2026-05-09 07:29 47.30931 -2.16340 28 ft 17 kts 70°
2026-05-09 07:29 47.31026 -2.15881 25 ft 78 kts 75°
2026-05-09 07:30 47.31231 -2.14856 29 ft 132 kts 74°
2026-05-09 07:30 47.31239 -2.14815 28 ft 133 kts 73°
2026-05-09 07:30 47.31274 -2.14636 45 ft 137 kts 72°
2026-05-09 07:30 47.31543 -2.13265 592 ft 141 kts 74°
2026-05-09 07:31 47.31818 -2.11834 1157 ft 148 kts 75°
2026-05-09 07:31 47.32118 -2.10273 1478 ft 170 kts 75°
2026-05-09 07:31 47.32486 -2.08477 1710 ft 196 kts 75°
2026-05-09 07:31 47.32906 -2.06425 1905 ft 222 kts 76°
2026-05-09 07:32 47.33357 -2.04114 2140 ft 245 kts 77°
2026-05-09 07:32 47.33807 -2.01636 2673 ft 254 kts 77°
2026-05-09 07:32 47.34262 -1.99093 3314 ft 258 kts 77°
2026-05-09 07:32 47.34719 -1.96518 3991 ft 261 kts 78°
2026-05-09 07:33 47.35177 -1.93920 4715 ft 263 kts 78°
2026-05-09 07:33 47.36102 -1.88657 6170 ft 266 kts 79°
2026-05-09 07:33 47.36566 -1.85999 6871 ft 269 kts 79°
2026-05-09 07:34 47.37036 -1.83307 7536 ft 273 kts 79°
2026-05-09 07:34 47.37510 -1.80592 8283 ft 274 kts 79°
2026-05-09 07:34 47.37987 -1.77848 8995 ft 278 kts 79°
2026-05-09 07:34 47.38470 -1.75069 9652 ft 282 kts 79°
2026-05-09 07:35 47.38960 -1.72242 10208 ft 290 kts 79°
2026-05-09 07:35 47.39471 -1.69276 10477 ft 306 kts 79°
2026-05-09 07:35 47.40009 -1.66158 10801 ft 319 kts 79°
2026-05-09 07:35 47.40556 -1.62988 11235 ft 327 kts 78°
2026-05-09 07:36 47.41123 -1.59708 11788 ft 331 kts 78°
2026-05-09 07:36 47.41695 -1.56394 12381 ft 335 kts 78°
2026-05-09 07:36 47.42273 -1.53039 12973 ft 338 kts 78°
2026-05-09 07:36 47.42853 -1.49655 13527 ft 342 kts 78°
2026-05-09 07:37 47.43440 -1.46227 14045 ft 346 kts 78°
2026-05-09 07:37 47.44031 -1.42765 14549 ft 349 kts 78°
2026-05-09 07:37 47.44626 -1.39272 15073 ft 352 kts 78°
2026-05-09 07:37 47.45225 -1.35751 15597 ft 354 kts 79°
2026-05-09 07:38 47.45827 -1.32203 16097 ft 357 kts 78°
2026-05-09 07:38 47.46432 -1.28628 16599 ft 360 kts 79°
2026-05-09 07:38 47.47041 -1.25023 17072 ft 363 kts 79°
2026-05-09 07:38 47.47655 -1.21379 17509 ft 367 kts 78°
2026-05-09 07:39 47.48273 -1.17706 17988 ft 370 kts 78°
2026-05-09 07:39 47.48895 -1.14007 18438 ft 372 kts 78°
2026-05-09 07:39 47.49520 -1.10277 18841 ft 375 kts 78°
2026-05-09 07:39 47.50147 -1.06525 19230 ft 377 kts 79°
2026-05-09 07:40 47.50778 -1.02742 19632 ft 380 kts 79°
2026-05-09 07:40 47.51412 -0.98935 20013 ft 382 kts 79°
2026-05-09 07:40 47.52049 -0.95102 20403 ft 385 kts 79°
2026-05-09 07:40 47.52732 -0.91261 20770 ft 388 kts 75°
2026-05-09 07:41 47.53736 -0.87593 21135 ft 393 kts 64°
2026-05-09 07:41 47.55239 -0.84182 21498 ft 398 kts 52°
2026-05-09 07:41 47.57191 -0.81234 21841 ft 403 kts 43°
2026-05-09 07:41 47.59350 -0.78560 22170 ft 406 kts 39°
2026-05-09 07:42 47.61596 -0.76007 22527 ft 408 kts 37°
2026-05-09 07:42 47.63889 -0.73494 22859 ft 411 kts 37°
2026-05-09 07:42 47.66196 -0.70985 23177 ft 413 kts 37°
2026-05-09 07:42 47.68516 -0.68443 23521 ft 415 kts 37°
2026-05-09 07:43 47.70837 -0.65871 23791 ft 417 kts 38°
2026-05-09 07:43 47.73162 -0.63268 24067 ft 419 kts 38°
2026-05-09 07:43 47.75493 -0.60640 24376 ft 420 kts 38°
2026-05-09 07:43 47.77812 -0.58013 24722 ft 419 kts 38°
2026-05-09 07:44 47.80121 -0.55390 25066 ft 418 kts 38°
2026-05-09 07:44 47.82402 -0.52796 25427 ft 417 kts 38°
2026-05-09 07:44 47.84704 -0.50175 25773 ft 416 kts 38°
2026-05-09 07:44 47.87004 -0.47554 26108 ft 416 kts 38°
2026-05-09 07:45 47.89302 -0.44935 26409 ft 416 kts 38°
2026-05-09 07:45 47.91598 -0.42314 26730 ft 416 kts 38°
2026-05-09 07:45 47.93897 -0.39688 27050 ft 415 kts 38°
2026-05-09 07:45 47.96193 -0.37061 27362 ft 415 kts 38°
2026-05-09 07:46 47.98481 -0.34441 27674 ft 415 kts 38°
2026-05-09 07:46 48.00770 -0.31817 28000 ft 414 kts 38°
2026-05-09 07:46 48.03056 -0.29195 28334 ft 413 kts 38°
2026-05-09 07:46 48.05300 -0.26532 28659 ft 412 kts 43°
2026-05-09 07:47 48.07327 -0.23501 28931 ft 411 kts 51°
2026-05-09 07:47 48.09172 -0.20245 29227 ft 410 kts 52°
2026-05-09 07:47 48.10960 -0.16923 29528 ft 410 kts 53°
2026-05-09 07:47 48.12712 -0.13566 29827 ft 409 kts 54°
2026-05-09 07:48 48.14455 -0.10177 30009 ft 411 kts 54°
2026-05-09 07:48 48.17945 -0.03357 30027 ft 418 kts 54°
2026-05-09 07:49 48.21490 0.03547 30024 ft 417 kts 54°
2026-05-09 07:49 48.25024 0.10414 30028 ft 413 kts 55°
2026-05-09 07:50 48.28519 0.17216 30024 ft 411 kts 55°
2026-05-09 07:50 48.32005 0.24025 30028 ft 411 kts 55°
2026-05-09 07:51 48.35486 0.30843 30028 ft 411 kts 56°
2026-05-09 07:51 48.38964 0.37668 30028 ft 411 kts 55°
2026-05-09 07:52 48.42438 0.44443 30016 ft 411 kts 56°
2026-05-09 07:52 48.45924 0.51213 30030 ft 407 kts 57°
2026-05-09 07:53 48.49380 0.57947 30033 ft 406 kts 57°
2026-05-09 07:53 48.53152 0.64334 30033 ft 411 kts 44°
2026-05-09 07:54 48.57626 0.69758 30036 ft 413 kts 41°
2026-05-09 07:54 48.62229 0.74989 30035 ft 414 kts 40°
2026-05-09 07:55 48.66818 0.80167 30037 ft 414 kts 41°
2026-05-09 07:55 48.71417 0.85400 30040 ft 413 kts 42°
2026-05-09 07:56 48.75992 0.90643 30037 ft 412 kts 42°
2026-05-09 07:56 48.80557 0.95894 30043 ft 412 kts 42°
2026-05-09 07:57 48.85122 1.01158 30046 ft 412 kts 42°
2026-05-09 07:57 48.89687 1.06430 30046 ft 412 kts 42°
2026-05-09 07:58 48.94244 1.11705 30048 ft 412 kts 42°
2026-05-09 07:58 48.98772 1.16959 30051 ft 412 kts 42°
2026-05-09 07:59 49.03266 1.22355 30048 ft 409 kts 47°
2026-05-09 07:59 49.07458 1.28206 30051 ft 408 kts 48°
2026-05-09 08:00 49.11585 1.34153 30035 ft 408 kts 48°
2026-05-09 08:00 49.15697 1.40121 30047 ft 408 kts 48°
2026-05-09 08:01 49.19805 1.46086 30051 ft 408 kts 48°
2026-05-09 08:01 49.23917 1.52061 30054 ft 408 kts 48°
2026-05-09 08:02 49.28029 1.58044 30058 ft 408 kts 48°
2026-05-09 08:02 49.32113 1.63999 30054 ft 408 kts 48°
2026-05-09 08:03 49.36219 1.69999 30063 ft 408 kts 48°
2026-05-09 08:03 49.40322 1.76012 30065 ft 408 kts 48°
2026-05-09 08:04 49.44421 1.82033 30055 ft 408 kts 48°
2026-05-09 08:04 49.48519 1.88067 30081 ft 407 kts 48°
2026-05-09 08:05 49.52624 1.94077 30080 ft 408 kts 46°
2026-05-09 08:05 49.56815 1.99967 30080 ft 408 kts 46°
2026-05-09 08:06 49.61030 2.05829 30079 ft 408 kts 46°
2026-05-09 08:06 49.64520 2.10707 30080 ft 408 kts 46°
2026-05-09 08:07 49.69400 2.17566 30083 ft 408 kts 46°
2026-05-09 08:07 49.73588 2.23478 30079 ft 408 kts 46°
2026-05-09 08:08 49.77098 2.28448 30078 ft 408 kts 45°
2026-05-09 08:08 49.81260 2.34345 30077 ft 407 kts 45°
2026-05-09 08:09 49.85437 2.40281 30073 ft 407 kts 45°
2026-05-09 08:09 49.89617 2.46235 30075 ft 407 kts 45°
2026-05-09 08:10 49.93790 2.52196 30101 ft 407 kts 45°
2026-05-09 08:10 49.97962 2.58171 30103 ft 408 kts 45°
2026-05-09 08:11 50.02111 2.64124 30103 ft 408 kts 45°
2026-05-09 08:11 50.06282 2.70124 30103 ft 409 kts 45°
2026-05-09 08:12 50.12539 2.79153 30098 ft 408 kts 45°
2026-05-09 08:12 50.16694 2.85168 30091 ft 408 kts 45°
2026-05-09 08:13 50.20849 2.91200 30094 ft 408 kts 45°
2026-05-09 08:13 50.25009 2.97251 30095 ft 408 kts 45°
2026-05-09 08:14 50.29162 3.03308 30100 ft 408 kts 45°
2026-05-09 08:14 50.33308 3.09370 30103 ft 408 kts 45°
2026-05-09 08:15 50.37424 3.15404 30101 ft 408 kts 45°
2026-05-09 08:15 50.41574 3.21502 30102 ft 408 kts 45°
2026-05-09 08:16 50.45709 3.27596 30101 ft 407 kts 44°
2026-05-09 08:16 50.49829 3.33678 30102 ft 406 kts 44°
2026-05-09 08:17 50.53638 3.40198 30106 ft 405 kts 51°
2026-05-09 08:17 50.57265 3.46979 30107 ft 405 kts 52°
2026-05-09 08:18 50.60853 3.53811 30109 ft 405 kts 52°
2026-05-09 08:18 50.64437 3.60652 30115 ft 405 kts 51°
2026-05-09 08:19 50.68028 3.67504 30112 ft 405 kts 51°
2026-05-09 08:19 50.71593 3.74318 30111 ft 405 kts 51°
2026-05-09 08:20 50.75167 3.81164 30124 ft 403 kts 51°
2026-05-09 08:20 50.78732 3.88012 30122 ft 403 kts 51°
2026-05-09 08:21 50.82292 3.94870 30127 ft 403 kts 51°
2026-05-09 08:21 50.85855 4.01752 30127 ft 404 kts 51°
2026-05-09 08:22 50.89417 4.08649 30127 ft 404 kts 51°
2026-05-09 08:22 50.92974 4.15556 30131 ft 405 kts 51°
2026-05-09 08:23 50.96505 4.22430 30130 ft 404 kts 51°
2026-05-09 08:23 51.00058 4.29366 30131 ft 404 kts 51°
2026-05-09 08:24 51.03603 4.36306 30130 ft 405 kts 51°
2026-05-09 08:24 51.07145 4.43258 30154 ft 404 kts 51°
2026-05-09 08:25 51.10682 4.50218 30157 ft 404 kts 52°
2026-05-09 08:25 51.14219 4.57198 30156 ft 405 kts 52°
2026-05-09 08:26 51.17747 4.64178 30156 ft 405 kts 52°
2026-05-09 08:26 51.21255 4.71138 30144 ft 405 kts 52°
2026-05-09 08:27 51.24776 4.78142 30132 ft 404 kts 51°
2026-05-09 08:27 51.28286 4.85146 30137 ft 403 kts 51°
2026-05-09 08:28 51.31786 4.92145 30138 ft 403 kts 51°
2026-05-09 08:28 51.35283 4.99158 30152 ft 403 kts 51°
2026-05-09 08:29 51.38775 5.06178 30152 ft 403 kts 51°
2026-05-09 08:29 51.42268 5.13223 30153 ft 403 kts 51°
2026-05-09 08:30 51.45753 5.20271 30155 ft 403 kts 51°
2026-05-09 08:30 51.49238 5.27339 30155 ft 405 kts 51°
2026-05-09 08:31 51.52699 5.34377 30156 ft 403 kts 50°
2026-05-09 08:31 51.56158 5.41431 30156 ft 401 kts 50°
2026-05-09 08:32 51.59612 5.48492 30155 ft 401 kts 51°
2026-05-09 08:33 51.64784 5.59105 30151 ft 402 kts 51°
2026-05-09 08:33 51.68228 5.66195 30161 ft 402 kts 51°
2026-05-09 08:34 51.71670 5.73300 30157 ft 403 kts 51°
2026-05-09 08:34 51.75114 5.80430 30156 ft 403 kts 51°
2026-05-09 08:35 51.78548 5.87559 30155 ft 401 kts 51°
2026-05-09 08:35 51.81937 5.94613 30151 ft 399 kts 51°
2026-05-09 08:36 51.85338 6.01714 30151 ft 399 kts 51°
2026-05-09 08:36 51.88734 6.08822 30153 ft 399 kts 51°
2026-05-09 08:37 51.92130 6.15952 30150 ft 400 kts 51°
2026-05-09 08:37 51.95528 6.23103 30149 ft 400 kts 51°
2026-05-09 08:38 51.98900 6.30316 30149 ft 401 kts 52°
2026-05-09 08:38 52.02224 6.37574 30148 ft 401 kts 52°
2026-05-09 08:39 52.05510 6.44780 30150 ft 398 kts 51°
2026-05-09 08:39 52.08803 6.52002 30149 ft 398 kts 51°
2026-05-09 08:40 52.12095 6.59236 30151 ft 398 kts 51°
2026-05-09 08:40 52.15390 6.66494 30152 ft 399 kts 51°
2026-05-09 08:41 52.18682 6.73766 30152 ft 399 kts 51°
2026-05-09 08:41 52.21968 6.81048 30151 ft 399 kts 52°
2026-05-09 08:42 52.25250 6.88342 30150 ft 399 kts 52°
2026-05-09 08:42 52.28508 6.95603 30155 ft 398 kts 51°
2026-05-09 08:43 52.31765 7.02885 30167 ft 396 kts 51°
2026-05-09 08:43 52.35017 7.10171 30150 ft 397 kts 51°
2026-05-09 08:44 52.38276 7.17493 30156 ft 398 kts 51°
2026-05-09 08:44 52.41527 7.24821 30151 ft 398 kts 51°
2026-05-09 08:45 52.44774 7.32160 30157 ft 398 kts 52°
2026-05-09 08:45 52.48014 7.39506 30171 ft 398 kts 52°
2026-05-09 08:46 52.51252 7.46868 30151 ft 398 kts 52°
2026-05-09 08:46 52.54481 7.54231 30165 ft 396 kts 51°
2026-05-09 08:47 52.57692 7.61577 30193 ft 392 kts 51°
2026-05-09 08:47 52.59269 7.65194 29931 ft 388 kts 51°
2026-05-09 08:47 52.60842 7.68805 29242 ft 388 kts 52°
2026-05-09 08:47 52.62429 7.72446 28281 ft 395 kts 52°
2026-05-09 08:48 52.64043 7.76153 27302 ft 402 kts 52°
2026-05-09 08:48 52.65678 7.79916 26366 ft 407 kts 52°
2026-05-09 08:48 52.67336 7.83741 25456 ft 412 kts 53°
2026-05-09 08:48 52.69007 7.87607 24575 ft 415 kts 53°
2026-05-09 08:49 52.70665 7.91448 23701 ft 415 kts 53°
2026-05-09 08:49 52.72323 7.95296 22709 ft 408 kts 53°
2026-05-09 08:49 52.73949 7.99078 21723 ft 401 kts 53°
2026-05-09 08:49 52.75549 8.02802 20890 ft 393 kts 53°
2026-05-09 08:50 52.77086 8.06387 20521 ft 374 kts 54°
2026-05-09 08:50 52.78567 8.09844 20131 ft 366 kts 54°
2026-05-09 08:50 52.80026 8.13251 19699 ft 360 kts 54°
2026-05-09 08:50 52.81459 8.16603 19289 ft 355 kts 54°
2026-05-09 08:51 52.82878 8.19926 18876 ft 353 kts 54°
2026-05-09 08:51 52.84293 8.23242 18467 ft 352 kts 54°
2026-05-09 08:51 52.85700 8.26544 18011 ft 351 kts 54°
2026-05-09 08:51 52.87100 8.29836 17593 ft 347 kts 54°
2026-05-09 08:52 52.88470 8.33062 17199 ft 344 kts 54°
2026-05-09 08:52 52.89850 8.36315 16787 ft 343 kts 54°
2026-05-09 08:52 52.91216 8.39537 16391 ft 339 kts 54°
2026-05-09 08:52 52.92568 8.42732 15982 ft 338 kts 54°
2026-05-09 08:53 52.93913 8.45914 15601 ft 335 kts 55°
2026-05-09 08:53 52.95242 8.49063 15194 ft 332 kts 54°
2026-05-09 08:53 52.96545 8.52153 14795 ft 331 kts 55°
2026-05-09 08:53 52.97421 8.54234 14535 ft 329 kts 55°
2026-05-09 08:54 52.98337 8.56411 14263 ft 326 kts 55°
2026-05-09 08:54 52.99631 8.59488 13849 ft 325 kts 55°
2026-05-09 08:54 53.00923 8.62565 13424 ft 323 kts 55°
2026-05-09 08:54 53.02201 8.65610 13016 ft 321 kts 56°
2026-05-09 08:55 53.03472 8.68647 12634 ft 319 kts 55°
2026-05-09 08:55 53.04306 8.70640 12380 ft 317 kts 55°
2026-05-09 08:55 53.05560 8.73641 11984 ft 315 kts 55°
2026-05-09 08:55 53.06804 8.76618 11586 ft 313 kts 55°
2026-05-09 08:56 53.08038 8.79577 11203 ft 310 kts 56°
2026-05-09 08:56 53.09262 8.82513 10810 ft 308 kts 56°
2026-05-09 08:56 53.10474 8.85427 10514 ft 301 kts 56°
2026-05-09 08:56 53.11992 8.89075 10398 ft 280 kts 57°
2026-05-09 08:57 53.12730 8.90851 10344 ft 271 kts 56°
2026-05-09 08:57 53.13788 8.93401 10200 ft 267 kts 56°
2026-05-09 08:57 53.14848 8.95962 9946 ft 269 kts 57°
2026-05-09 08:57 53.15904 8.98516 9578 ft 267 kts 57°
2026-05-09 08:58 53.16953 9.01058 9272 ft 266 kts 57°
2026-05-09 08:58 53.17996 9.03584 8947 ft 264 kts 58°
2026-05-09 08:58 53.19035 9.06101 8636 ft 262 kts 57°
2026-05-09 08:58 53.20054 9.08574 8329 ft 261 kts 57°
2026-05-09 08:59 53.21080 9.11063 8012 ft 260 kts 57°
2026-05-09 08:59 53.22099 9.13540 7699 ft 258 kts 57°
2026-05-09 08:59 53.23113 9.16002 7398 ft 257 kts 58°
2026-05-09 08:59 53.24120 9.18457 7087 ft 255 kts 57°
2026-05-09 09:00 53.25119 9.20891 6780 ft 254 kts 57°
2026-05-09 09:00 53.26116 9.23323 6460 ft 252 kts 57°
2026-05-09 09:00 53.27103 9.25737 6129 ft 251 kts 57°
2026-05-09 09:00 53.28085 9.28137 5828 ft 249 kts 58°
2026-05-09 09:01 53.29087 9.30486 5545 ft 248 kts 55°
2026-05-09 09:01 53.30122 9.32792 5311 ft 248 kts 54°
2026-05-09 09:01 53.31163 9.35086 5013 ft 247 kts 55°
2026-05-09 09:01 53.32202 9.37375 4700 ft 245 kts 54°
2026-05-09 09:02 53.33221 9.39619 4385 ft 244 kts 55°
2026-05-09 09:02 53.34256 9.41903 4070 ft 252 kts 55°
2026-05-09 09:02 53.35334 9.44287 4002 ft 259 kts 55°
2026-05-09 09:02 53.36428 9.46702 4001 ft 261 kts 54°
2026-05-09 09:03 53.37524 9.49123 4002 ft 260 kts 55°
2026-05-09 09:03 53.38579 9.51456 3990 ft 243 kts 55°
2026-05-09 09:03 53.39592 9.53699 3996 ft 241 kts 54°
2026-05-09 09:03 53.40605 9.55948 4002 ft 242 kts 56°
2026-05-09 09:04 53.41617 9.58195 3991 ft 242 kts 54°
2026-05-09 09:04 53.42621 9.60440 3713 ft 240 kts 54°
2026-05-09 09:04 53.43651 9.62644 3257 ft 239 kts 53°
2026-05-09 09:04 53.44680 9.64804 2731 ft 235 kts 53°
2026-05-09 09:05 53.45675 9.66920 2313 ft 225 kts 53°
2026-05-09 09:05 53.46607 9.68907 2006 ft 208 kts 54°
2026-05-09 09:05 53.47466 9.70713 1753 ft 188 kts 54°
2026-05-09 09:05 53.48252 9.72373 1495 ft 175 kts 53°
2026-05-09 09:06 53.48966 9.73886 1295 ft 160 kts 54°
2026-05-09 09:06 53.49615 9.75263 1063 ft 145 kts 53°
2026-05-09 09:06 53.50207 9.76515 878 ft 133 kts 54°
2026-05-09 09:06 53.50776 9.77722 701 ft 131 kts 53°
2026-05-09 09:07 53.51343 9.78926 523 ft 132 kts 54°
2026-05-09 09:07 53.51909 9.80128 358 ft 132 kts 54°
2026-05-09 09:07 53.52477 9.81330 165 ft 130 kts 54°
2026-05-09 09:07 53.53041 9.82516 31 ft 127 kts 52°
2026-05-09 09:08 53.53500 9.83487 30 ft 80 kts 52°
2026-05-09 09:08 53.53750 9.84018 26 ft 49 kts 51°
2026-05-09 09:08 53.53936 9.84411 27 ft 40 kts 51°
2026-05-09 09:08 53.54102 9.84763 27 ft 35 kts 52°
2026-05-09 09:09 53.54222 9.85034 29 ft 18 kts 64°
2026-05-09 09:09 53.54265 9.85079 30 ft 3 kts 320°
2026-05-09 09:09 53.54256 9.85037 30 ft 9 kts 218°
2026-05-09 09:09 53.54139 9.84843 28 ft 29 kts 232°
2026-05-09 09:10 53.54012 9.84571 27 ft 30 kts 231°
2026-05-09 09:10 53.53881 9.84295 28 ft 30 kts 232°
2026-05-09 09:10 53.53754 9.84025 26 ft 29 kts 231°
2026-05-09 09:10 53.53624 9.83752 27 ft 30 kts 232°
2026-05-09 09:11 53.53492 9.83470 30 ft 31 kts 231°
2026-05-09 09:11 53.53366 9.83204 26 ft 18 kts 231°
2026-05-09 09:11 53.53354 9.83073 30 ft 11 kts 309°
2026-05-09 09:11 53.53417 9.82983 30 ft 13 kts 320°
2026-05-09 09:12 53.53490 9.82885 29 ft 14 kts 321°
2026-05-09 09:12 53.53555 9.82808 30 ft 3 kts 348°
2026-05-09 09:12 53.53569 9.82821 31 ft 2 kts 38°
2026-05-09 09:12 53.53581 9.82844 31 ft 2 kts 47°
2026-05-09 09:13 53.53589 9.82859 30 ft 1 kts 47°
2026-05-09 09:13 53.53597 9.82873 31 ft 2 kts 48°